,,,PA_Meas_PMT16A,,PR_Meas_QMR101_102,,RH_Meas_QMH101,,SR_Meas_QMS101,,TA_Meas_QMH101,,GenWind,,GenWind,
date,time,status,PA,status,PR,status,RH,status,SR,status,TA,status,DirAvg,status,SpdAvg,
2011-10-18, 00:00:04,VALID,1004.78,VALID,0,VALID,86.4047,VALID,0,VALID,26.0966,VALID,6,VALID,0.965625,
2011-10-18, 00:01:04,VALID,1004.74,VALID,0,VALID,85.9851,VALID,0,VALID,26.1765,VALID,359,VALID,1.12734,
2011-10-18, 00:02:04,VALID,1004.76,VALID,0,VALID,86.1606,VALID,0,VALID,26.155,VALID,8,VALID,1.45,
2011-10-18, 00:03:04,VALID,1004.79,VALID,0,VALID,85.947,VALID,0,VALID,26.1745,VALID,1,VALID,0.944531,
2011-10-18, 00:04:04,VALID,1004.8,VALID,0,VALID,86.0156,VALID,0,VALID,26.1745,VALID,5,VALID,1.59766,
2011-10-18, 00:05:04,VALID,1004.79,VALID,0,VALID,85.68,VALID,0,VALID,26.2154,VALID,347,VALID,0.909766,
2011-10-18, 00:06:04,VALID,1004.79,VALID,0,VALID,85.9546,VALID,0,VALID,26.155,VALID,346,VALID,1.48125,
2011-10-18, 00:07:04,VALID,1004.8,VALID,0,VALID,85.7334,VALID,0,VALID,26.155,VALID,355,VALID,0.861719,
2011-10-18, 00:08:04,VALID,1004.78,VALID,0,VALID,85.8554,VALID,0,VALID,26.116,VALID,355,VALID,0.982422,
2011-10-18, 00:09:04,VALID,1004.8,VALID,0,VALID,86.1377,VALID,0,VALID,26.0771,VALID,344,VALID,1.20391,
2011-10-18, 00:10:04,VALID,1004.8,VALID,0,VALID,86.3055,VALID,0,VALID,26.0596,VALID,358,VALID,0.686719,
2011-10-18, 00:11:04,VALID,1004.79,VALID,0,VALID,86.3894,VALID,0,VALID,25.9992,VALID,9,VALID,0.0328125,
2011-10-18, 00:12:04,VALID,1004.79,VALID,0,VALID,86.6107,VALID,0,VALID,25.9622,VALID,9,VALID,0,
2011-10-18, 00:13:04,VALID,1004.76,VALID,0,VALID,86.9921,VALID,0,VALID,25.9018,VALID,7,VALID,0.699609,
2011-10-18, 00:14:04,VALID,1004.73,VALID,0,VALID,87.2134,VALID,0,VALID,25.8453,VALID,333,VALID,0.994922,
2011-10-18, 00:15:04,VALID,1004.72,VALID,0,VALID,87.3278,VALID,0,VALID,25.8044,VALID,359,VALID,0.580078,
2011-10-18, 00:16:04,VALID,1004.74,VALID,0,VALID,87.3965,VALID,0,VALID,25.746,VALID,359,VALID,0.316797,
2011-10-18, 00:17:04,VALID,1004.73,VALID,0,VALID,87.7703,VALID,0,VALID,25.7071,VALID,359,VALID,0.16875,
2011-10-18, 00:18:04,VALID,1004.73,VALID,0,VALID,88.0525,VALID,0,VALID,25.67,VALID,359,VALID,0.403516,
2011-10-18, 00:19:04,VALID,1004.74,VALID,0,VALID,88.3348,VALID,0,VALID,25.6311,VALID,359,VALID,0.371875,
2011-10-18, 00:20:04,VALID,1004.72,VALID,0,VALID,88.4569,VALID,0,VALID,25.5707,VALID,355,VALID,0.676953,
2011-10-18, 00:21:04,VALID,1004.73,VALID,0,VALID,88.5103,VALID,0,VALID,25.5513,VALID,355,VALID,0.628516,
2011-10-18, 00:22:04,VALID,1004.74,VALID,0,VALID,88.5789,VALID,0,VALID,25.5727,VALID,8,VALID,0.805859,
2011-10-18, 00:23:04,VALID,1004.77,VALID,0,VALID,88.7391,VALID,0,VALID,25.5707,VALID,20,VALID,0.672266,
2011-10-18, 00:24:04,VALID,1004.72,VALID,0,VALID,88.2127,VALID,0,VALID,25.5902,VALID,20,VALID,0.198047,
2011-10-18, 00:25:04,VALID,1004.75,VALID,0,VALID,88.2585,VALID,0,VALID,25.5707,VALID,20,VALID,0.00429688,
2011-10-18, 00:26:04,VALID,1004.73,VALID,0,VALID,88.4798,VALID,0,VALID,25.5318,VALID,20,VALID,0.171875,
2011-10-18, 00:27:04,VALID,1004.73,VALID,0,VALID,88.6171,VALID,0,VALID,25.5142,VALID,20,VALID,0.3625,
2011-10-18, 00:28:04,VALID,1004.75,VALID,0,VALID,88.9833,VALID,0,VALID,25.4967,VALID,20,VALID,0.491016,
2011-10-18, 00:29:04,VALID,1004.76,VALID,0,VALID,89.0214,VALID,0,VALID,25.4363,VALID,20,VALID,0.416797,
2011-10-18, 00:30:04,VALID,1004.74,VALID,0,VALID,89.0824,VALID,0,VALID,25.4169,VALID,20,VALID,0.167578,
2011-10-18, 00:31:04,VALID,1004.71,VALID,0,VALID,89.2732,VALID,0,VALID,25.3565,VALID,20,VALID,0.178906,
2011-10-18, 00:32:04,VALID,1004.71,VALID,0,VALID,89.5097,VALID,0,VALID,25.2981,VALID,20,VALID,0.221875,
2011-10-18, 00:33:04,VALID,1004.73,VALID,0,VALID,89.5554,VALID,0,VALID,25.2786,VALID,20,VALID,0.389062,
2011-10-18, 00:34:04,VALID,1004.73,VALID,0,VALID,89.7614,VALID,0,VALID,25.2397,VALID,20,VALID,0.240625,
2011-10-18, 00:35:04,VALID,1004.74,VALID,0,VALID,90.0666,VALID,0,VALID,25.1813,VALID,20,VALID,0.5,
2011-10-18, 00:36:04,VALID,1004.76,VALID,0,VALID,90.4862,VALID,0,VALID,25.1637,VALID,23,VALID,0.642969,
2011-10-18, 00:37:04,VALID,1004.72,VALID,0,VALID,90.6387,VALID,0,VALID,25.1229,VALID,27,VALID,0.413281,
2011-10-18, 00:38:04,VALID,1004.67,VALID,0,VALID,90.6845,VALID,0,VALID,25.1423,VALID,27,VALID,0.3375,
2011-10-18, 00:39:04,VALID,1004.69,VALID,0,VALID,90.4556,VALID,0,VALID,25.1248,VALID,26,VALID,0.415625,
2011-10-18, 00:40:04,VALID,1004.65,VALID,0,VALID,90.6998,VALID,0,VALID,25.0663,VALID,18,VALID,0.403125,
2011-10-18, 00:41:04,VALID,1004.66,VALID,0,VALID,90.715,VALID,0,VALID,25.1053,VALID,19,VALID,0.25,
2011-10-18, 00:42:04,VALID,1004.64,VALID,0,VALID,90.593,VALID,0,VALID,25.1442,VALID,30,VALID,0.561719,
2011-10-18, 00:43:04,VALID,1004.61,VALID,0,VALID,90.5396,VALID,0,VALID,25.1423,VALID,35,VALID,0.322266,
2011-10-18, 00:44:04,VALID,1004.62,VALID,0,VALID,90.4251,VALID,0,VALID,25.1423,VALID,35,VALID,0.1625,
2011-10-18, 00:45:04,VALID,1004.6,VALID,0,VALID,90.4556,VALID,0,VALID,25.1618,VALID,35,VALID,0.309375,
2011-10-18, 00:46:04,VALID,1004.59,VALID,0,VALID,90.3336,VALID,0,VALID,25.1813,VALID,36,VALID,0.278516,
2011-10-18, 00:47:04,VALID,1004.59,VALID,0,VALID,90.0894,VALID,0,VALID,25.2202,VALID,36,VALID,0.398438,
2011-10-18, 00:48:04,VALID,1004.59,VALID,0,VALID,89.975,VALID,0,VALID,25.2397,VALID,33,VALID,0.569141,
2011-10-18, 00:49:04,VALID,1004.6,VALID,0,VALID,89.9064,VALID,0,VALID,25.2592,VALID,12,VALID,0.510938,
2011-10-18, 00:50:04,VALID,1004.56,VALID,0,VALID,89.5478,VALID,0,VALID,25.339,VALID,9,VALID,0.373828,
2011-10-18, 00:51:04,VALID,1004.53,VALID,0,VALID,89.4486,VALID,0,VALID,25.337,VALID,2,VALID,0.803906,
2011-10-18, 00:52:04,VALID,1004.55,VALID,0,VALID,89.1816,VALID,0,VALID,25.3974,VALID,2,VALID,0.475781,
2011-10-18, 00:53:04,VALID,1004.54,VALID,0,VALID,89.029,VALID,0,VALID,25.3955,VALID,2,VALID,0.469922,
2011-10-18, 00:54:04,VALID,1004.52,VALID,0,VALID,88.8688,VALID,0,VALID,25.4558,VALID,3,VALID,0.455469,
2011-10-18, 00:55:04,VALID,1004.5,VALID,0,VALID,88.7849,VALID,0,VALID,25.3955,VALID,4,VALID,0.490234,
2011-10-18, 00:56:04,VALID,1004.47,VALID,0,VALID,88.7544,VALID,0,VALID,25.4558,VALID,27,VALID,0.639453,
2011-10-18, 00:57:04,VALID,1004.46,VALID,0,VALID,88.6018,VALID,0,VALID,25.4344,VALID,20,VALID,0.550391,
2011-10-18, 00:58:04,VALID,1004.43,VALID,0,VALID,88.7239,VALID,0,VALID,25.4344,VALID,28,VALID,1.07695,
2011-10-18, 00:59:04,VALID,1004.4,VALID,0,VALID,88.4569,VALID,0,VALID,25.5142,VALID,10,VALID,0.654688,
2011-10-18, 01:00:04,VALID,1004.34,VALID,0,VALID,88.4492,VALID,0,VALID,25.4734,VALID,11,VALID,0.699609,
2011-10-18, 01:01:04,VALID,1004.34,VALID,0,VALID,88.5637,VALID,0,VALID,25.4948,VALID,20,VALID,0.695703,
2011-10-18, 01:02:04,VALID,1004.33,VALID,0,VALID,88.4035,VALID,0,VALID,25.4948,VALID,23,VALID,0.610937,
2011-10-18, 01:03:04,VALID,1004.29,VALID,0,VALID,88.3424,VALID,0,VALID,25.4928,VALID,23,VALID,0.537891,
2011-10-18, 01:04:04,VALID,1004.22,VALID,0,VALID,88.2967,VALID,0,VALID,25.5123,VALID,23,VALID,0.71875,
2011-10-18, 01:05:04,VALID,1004.22,VALID,0,VALID,88.0296,VALID,0,VALID,25.5921,VALID,10,VALID,1.35469,
2011-10-18, 01:06:04,VALID,1004.16,VALID,0,VALID,87.5719,VALID,0,VALID,25.6292,VALID,18,VALID,1.0918,
2011-10-18, 01:07:04,VALID,1004.17,VALID,0,VALID,87.3507,VALID,0,VALID,25.709,VALID,10,VALID,0.463281,
2011-10-18, 01:08:04,VALID,1004.17,VALID,0,VALID,87.1447,VALID,0,VALID,25.7051,VALID,16,VALID,1.41953,
2011-10-18, 01:09:04,VALID,1004.14,VALID,0,VALID,86.7327,VALID,0,VALID,25.8064,VALID,11,VALID,0.917969,
2011-10-18, 01:10:04,VALID,1004.15,VALID,0,VALID,86.6031,VALID,0,VALID,25.8843,VALID,13,VALID,0.347656,
2011-10-18, 01:11:04,VALID,1004.17,VALID,0,VALID,86.3666,VALID,0,VALID,25.9038,VALID,25,VALID,0.955078,
2011-10-18, 01:12:04,VALID,1004.17,VALID,0,VALID,86.1148,VALID,0,VALID,25.9232,VALID,10,VALID,0.819141,
2011-10-18, 01:13:04,VALID,1004.15,VALID,0,VALID,85.9241,VALID,0,VALID,25.9213,VALID,358,VALID,0.783203,
2011-10-18, 01:14:04,VALID,1004.14,VALID,0,VALID,85.8402,VALID,0,VALID,25.9622,VALID,354,VALID,0.764063,
2011-10-18, 01:15:04,VALID,1004.15,VALID,0,VALID,85.9088,VALID,0,VALID,26.0206,VALID,25,VALID,0.394141,
2011-10-18, 01:16:04,VALID,1004.12,VALID,0,VALID,85.7257,VALID,0,VALID,25.9992,VALID,25,VALID,0.336719,
2011-10-18, 01:17:04,VALID,1004.12,VALID,0,VALID,85.7944,VALID,0,VALID,26.0012,VALID,23,VALID,0.491797,
2011-10-18, 01:18:04,VALID,1004.09,VALID,0,VALID,85.9165,VALID,0,VALID,25.9408,VALID,355,VALID,0.752344,
2011-10-18, 01:19:04,VALID,1004.05,VALID,0,VALID,86.069,VALID,0,VALID,25.9427,VALID,343,VALID,0.446484,
2011-10-18, 01:20:04,VALID,1004.08,VALID,0,VALID,85.9165,VALID,0,VALID,25.9622,VALID,35,VALID,0.693359,
2011-10-18, 01:21:04,VALID,1004.08,VALID,0,VALID,85.947,VALID,0,VALID,25.9797,VALID,36,VALID,0.142188,
2011-10-18, 01:22:04,VALID,1004.06,VALID,0,VALID,85.8554,VALID,0,VALID,26.0012,VALID,36,VALID,0.184375,
2011-10-18, 01:23:04,VALID,1004.11,VALID,0,VALID,85.7028,VALID,0,VALID,26.0206,VALID,36,VALID,0.00742187,
2011-10-18, 01:24:04,VALID,1004.07,VALID,0,VALID,85.7791,VALID,0,VALID,25.9992,VALID,36,VALID,0.352344,
2011-10-18, 01:25:04,VALID,1004.12,VALID,0,VALID,85.5503,VALID,0,VALID,26.0012,VALID,36,VALID,0.3375,
2011-10-18, 01:26:04,VALID,1004.11,VALID,0,VALID,85.7181,VALID,0,VALID,26.0576,VALID,36,VALID,0.322656,
2011-10-18, 01:27:04,VALID,1004.12,VALID,0,VALID,86.0156,VALID,0,VALID,26.0576,VALID,64,VALID,0.536328,
2011-10-18, 01:28:04,VALID,1004.11,VALID,0,VALID,86.0233,VALID,0,VALID,25.9992,VALID,118,VALID,0.560547,
2011-10-18, 01:29:04,VALID,1004.14,VALID,0,VALID,86.1072,VALID,0,VALID,25.9622,VALID,118,VALID,0.114844,
2011-10-18, 01:30:04,VALID,1004.16,VALID,0,VALID,86.1758,VALID,0,VALID,25.8434,VALID,27,VALID,0.549219,
2011-10-18, 01:31:04,VALID,1004.15,VALID,0,VALID,86.6107,VALID,0,VALID,25.8064,VALID,27,VALID,0.198047,
2011-10-18, 01:32:04,VALID,1004.16,VALID,0,VALID,87.1905,VALID,0,VALID,25.7285,VALID,27,VALID,0.468359,
2011-10-18, 01:33:04,VALID,1004.12,VALID,0,VALID,87.6863,VALID,0,VALID,25.5921,VALID,26,VALID,0.362109,
2011-10-18, 01:34:04,VALID,1004.16,VALID,0,VALID,88.1288,VALID,0,VALID,25.4734,VALID,25,VALID,0.594922,
2011-10-18, 01:35:04,VALID,1004.15,VALID,0,VALID,88.495,VALID,0,VALID,25.4169,VALID,347,VALID,0.869922,
2011-10-18, 01:36:04,VALID,1004.16,VALID,0,VALID,88.8078,VALID,0,VALID,25.337,VALID,342,VALID,0.466797,
2011-10-18, 01:37:04,VALID,1004.17,VALID,0,VALID,89.2045,VALID,0,VALID,25.2806,VALID,342,VALID,0.466406,
2011-10-18, 01:38:04,VALID,1004.16,VALID,0,VALID,89.4105,VALID,0,VALID,25.2007,VALID,342,VALID,0.393359,
2011-10-18, 01:39:04,VALID,1004.18,VALID,0,VALID,89.6699,VALID,0,VALID,25.1832,VALID,343,VALID,0.575,
2011-10-18, 01:40:04,VALID,1004.19,VALID,0,VALID,90.0437,VALID,0,VALID,25.1034,VALID,343,VALID,0.794922,
2011-10-18, 01:41:04,VALID,1004.19,VALID,0,VALID,89.9598,VALID,0,VALID,25.0858,VALID,344,VALID,0.853906,
2011-10-18, 01:42:04,VALID,1004.18,VALID,0,VALID,90.3717,VALID,0,VALID,25.0255,VALID,340,VALID,0.716016,
2011-10-18, 01:43:04,VALID,1004.18,VALID,0,VALID,90.5548,VALID,0,VALID,25.006,VALID,341,VALID,0.700781,
2011-10-18, 01:44:04,VALID,1004.15,VALID,0,VALID,90.8447,VALID,0,VALID,24.969,VALID,341,VALID,0.645703,
2011-10-18, 01:45:04,VALID,1004.14,VALID,0,VALID,90.7989,VALID,0,VALID,24.9866,VALID,360,VALID,1.18125,
2011-10-18, 01:46:04,VALID,1004.11,VALID,0,VALID,90.036,VALID,0,VALID,25.1423,VALID,23,VALID,0.723437,
2011-10-18, 01:47:04,VALID,1004.05,VALID,0,VALID,89.4105,VALID,0,VALID,25.2202,VALID,360,VALID,0.695703,
2011-10-18, 01:48:04,VALID,1004.03,VALID,0,VALID,89.3571,VALID,0,VALID,25.2007,VALID,360,VALID,0.51875,
2011-10-18, 01:49:04,VALID,1004.01,VALID,0,VALID,89.6088,VALID,0,VALID,25.1404,VALID,360,VALID,0.205469,
2011-10-18, 01:50:04,VALID,1004,VALID,0,VALID,89.8072,VALID,0,VALID,25.1423,VALID,360,VALID,0.544922,
2011-10-18, 01:51:04,VALID,1003.99,VALID,0,VALID,89.914,VALID,0,VALID,25.1423,VALID,360,VALID,0.00351562,
2011-10-18, 01:52:04,VALID,1003.98,VALID,0,VALID,89.8758,VALID,0,VALID,25.1423,VALID,360,VALID,0,
2011-10-18, 01:53:04,VALID,1003.96,VALID,0,VALID,89.853,VALID,0,VALID,25.1229,VALID,360,VALID,0.0347656,
2011-10-18, 01:54:04,VALID,1003.97,VALID,0,VALID,90.0055,VALID,0,VALID,25.1034,VALID,360,VALID,0.157422,
2011-10-18, 01:55:04,VALID,1003.97,VALID,0,VALID,90.0742,VALID,0.0815089,VALID,25.1034,VALID,360,VALID,0,
2011-10-18, 01:56:04,VALID,1003.93,VALID,0,VALID,90.1581,VALID,0,VALID,25.0858,VALID,360,VALID,0.152344,
2011-10-18, 01:57:04,VALID,1003.9,VALID,0,VALID,90.3717,VALID,0,VALID,25.0469,VALID,360,VALID,0.505078,
2011-10-18, 01:58:04,VALID,1003.85,VALID,0,VALID,90.5853,VALID,0,VALID,24.9866,VALID,360,VALID,0.503516,
2011-10-18, 01:59:04,VALID,1003.8,VALID,0,VALID,90.86,VALID,0,VALID,24.9087,VALID,360,VALID,0.655859,
2011-10-18, 02:00:04,VALID,1003.77,VALID,0,VALID,91.0354,VALID,0,VALID,24.8503,VALID,360,VALID,0.589844,
2011-10-18, 02:01:04,VALID,1003.75,VALID,0,VALID,91.4245,VALID,0,VALID,24.7724,VALID,359,VALID,0.737891,
2011-10-18, 02:02:04,VALID,1003.71,VALID,0,VALID,91.7831,VALID,0,VALID,24.7335,VALID,357,VALID,0.592578,
2011-10-18, 02:03:04,VALID,1003.73,VALID,0,VALID,92.0577,VALID,0,VALID,24.675,VALID,357,VALID,0.602734,
2011-10-18, 02:04:04,VALID,1003.73,VALID,0,VALID,92.3018,VALID,0,VALID,24.6361,VALID,357,VALID,0.485547,
2011-10-18, 02:05:04,VALID,1003.72,VALID,0,VALID,92.2789,VALID,0,VALID,24.5972,VALID,357,VALID,0.0808594,
2011-10-18, 02:06:04,VALID,1003.7,VALID,0,VALID,92.5307,VALID,0,VALID,24.5777,VALID,5,VALID,0.504297,
2011-10-18, 02:07:04,VALID,1003.68,VALID,0,VALID,92.5154,VALID,0,VALID,24.5953,VALID,5,VALID,0.55,
2011-10-18, 02:08:04,VALID,1003.68,VALID,0,VALID,92.3781,VALID,0,VALID,24.6361,VALID,9,VALID,0.573438,
2011-10-18, 02:09:04,VALID,1003.65,VALID,0,VALID,92.1721,VALID,0,VALID,24.6964,VALID,9,VALID,0.590625,
2011-10-18, 02:10:04,VALID,1003.63,VALID,0,VALID,92.1569,VALID,0,VALID,24.7335,VALID,3,VALID,0.524609,
2011-10-18, 02:11:04,VALID,1003.62,VALID,0,VALID,91.9967,VALID,0,VALID,24.7724,VALID,3,VALID,0.789453,
2011-10-18, 02:12:04,VALID,1003.61,VALID,0,VALID,91.7602,VALID,0,VALID,24.8503,VALID,18,VALID,1.53359,
2011-10-18, 02:13:04,VALID,1003.64,VALID,0,VALID,91.0659,VALID,0,VALID,25.0255,VALID,353,VALID,1.04648,
2011-10-18, 02:14:04,VALID,1003.63,VALID,0,VALID,90.3412,VALID,0,VALID,25.1423,VALID,7,VALID,0.836719,
2011-10-18, 02:15:04,VALID,1003.63,VALID,0,VALID,89.7233,VALID,0,VALID,25.2592,VALID,11,VALID,1.37812,
2011-10-18, 02:16:04,VALID,1003.64,VALID,0,VALID,89.235,VALID,0,VALID,25.3955,VALID,19,VALID,1.08164,
2011-10-18, 02:17:04,VALID,1003.64,VALID,0,VALID,88.2967,VALID,0,VALID,25.5707,VALID,26,VALID,1.18398,
2011-10-18, 02:18:04,VALID,1003.64,VALID,0,VALID,87.8389,VALID,0,VALID,25.6506,VALID,4,VALID,1.0625,
2011-10-18, 02:19:04,VALID,1003.61,VALID,0,VALID,87.9839,VALID,0,VALID,25.6097,VALID,24,VALID,1.39258,
2011-10-18, 02:20:04,VALID,1003.64,VALID,0,VALID,87.694,VALID,0,VALID,25.67,VALID,21,VALID,1.11953,
2011-10-18, 02:21:04,VALID,1003.65,VALID,0,VALID,87.9839,VALID,0,VALID,25.6097,VALID,28,VALID,0.707422,
2011-10-18, 02:22:04,VALID,1003.65,VALID,0,VALID,87.9762,VALID,0.0815089,VALID,25.6292,VALID,14,VALID,1.18672,
2011-10-18, 02:23:04,VALID,1003.73,VALID,0,VALID,87.5719,VALID,0,VALID,25.709,VALID,15,VALID,1.06055,
2011-10-18, 02:24:04,VALID,1003.75,VALID,0,VALID,87.221,VALID,0,VALID,25.7655,VALID,14,VALID,1.23789,
2011-10-18, 02:25:04,VALID,1003.74,VALID,0,VALID,86.8853,VALID,0,VALID,25.8259,VALID,9,VALID,1.81953,
2011-10-18, 02:26:04,VALID,1003.77,VALID,0,VALID,86.3742,VALID,0,VALID,25.9213,VALID,16,VALID,0.818359,
2011-10-18, 02:27:04,VALID,1003.81,VALID,0,VALID,86.1911,VALID,0,VALID,26.0012,VALID,22,VALID,0.864453,
2011-10-18, 02:28:04,VALID,1003.81,VALID,0,VALID,86.275,VALID,0,VALID,25.9602,VALID,15,VALID,0.9375,
2011-10-18, 02:29:04,VALID,1003.81,VALID,0,VALID,86.3284,VALID,0,VALID,25.9408,VALID,13,VALID,0.767969,
2011-10-18, 02:30:04,VALID,1003.8,VALID,0,VALID,86.3818,VALID,0,VALID,25.9408,VALID,13,VALID,0.934766,
2011-10-18, 02:31:04,VALID,1003.79,VALID,0,VALID,86.3055,VALID,0,VALID,25.9408,VALID,26,VALID,1.45977,
2011-10-18, 02:32:04,VALID,1003.78,VALID,0,VALID,86.42,VALID,0,VALID,25.9797,VALID,16,VALID,0.396875,
2011-10-18, 02:33:04,VALID,1003.77,VALID,0,VALID,86.3208,VALID,0,VALID,25.9622,VALID,16,VALID,0.857031,
2011-10-18, 02:34:04,VALID,1003.71,VALID,0,VALID,85.3138,VALID,0,VALID,26.0206,VALID,29,VALID,2.27852,
2011-10-18, 02:35:04,VALID,1003.7,VALID,0,VALID,85.1536,VALID,0,VALID,26.0791,VALID,10,VALID,1.13359,
2011-10-18, 02:36:04,VALID,1003.67,VALID,0,VALID,85.1307,VALID,0,VALID,26.0985,VALID,31,VALID,0.396094,
2011-10-18, 02:37:04,VALID,1003.65,VALID,0,VALID,84.5509,VALID,0,VALID,26.0576,VALID,33,VALID,1.10977,
2011-10-18, 02:38:04,VALID,1003.65,VALID,0,VALID,84.8789,VALID,0,VALID,26.0576,VALID,48,VALID,0.0851562,
2011-10-18, 02:39:04,VALID,1003.64,VALID,0,VALID,84.9705,VALID,0,VALID,26.0596,VALID,46,VALID,0.301953,
2011-10-18, 02:40:04,VALID,1003.65,VALID,0,VALID,84.0855,VALID,0,VALID,26.0206,VALID,24,VALID,1.20781,
2011-10-18, 02:41:04,VALID,1003.65,VALID,0,VALID,85.1307,VALID,0,VALID,26.0187,VALID,22,VALID,0.462891,
2011-10-18, 02:42:04,VALID,1003.62,VALID,0,VALID,83.643,VALID,0,VALID,25.9817,VALID,57,VALID,1.12305,
2011-10-18, 02:43:04,VALID,1003.62,VALID,0,VALID,84.322,VALID,0,VALID,25.9817,VALID,34,VALID,0.458594,
2011-10-18, 02:44:04,VALID,1003.62,VALID,0,VALID,84.4975,VALID,0,VALID,25.9408,VALID,45,VALID,0.394531,
2011-10-18, 02:45:04,VALID,1003.64,VALID,0,VALID,84.5509,VALID,0,VALID,25.9038,VALID,40,VALID,0.441016,
2011-10-18, 02:46:04,VALID,1003.63,VALID,0,VALID,84.116,VALID,0,VALID,25.8629,VALID,40,VALID,0.817187,
2011-10-18, 02:47:04,VALID,1003.63,VALID,0,VALID,84.6043,VALID,0,VALID,25.8434,VALID,32,VALID,0.712891,
2011-10-18, 02:48:04,VALID,1003.61,VALID,0,VALID,84.4059,VALID,0,VALID,25.8044,VALID,12,VALID,0.964453,
2011-10-18, 02:49:04,VALID,1003.62,VALID,0,VALID,84.8484,VALID,0.0815089,VALID,25.785,VALID,19,VALID,0.391797,
2011-10-18, 02:50:04,VALID,1003.6,VALID,0,VALID,84.2305,VALID,0,VALID,25.7674,VALID,31,VALID,1.10898,
2011-10-18, 02:51:04,VALID,1003.59,VALID,0,VALID,84.7492,VALID,0,VALID,25.7655,VALID,47,VALID,0.513672,
2011-10-18, 02:52:04,VALID,1003.59,VALID,0,VALID,84.1923,VALID,0,VALID,25.7265,VALID,62,VALID,0.638281,
2011-10-18, 02:53:04,VALID,1003.65,VALID,0,VALID,84.7035,VALID,0,VALID,25.748,VALID,76,VALID,0.575391,
2011-10-18, 02:54:04,VALID,1003.67,VALID,0,VALID,84.3907,VALID,0,VALID,25.7071,VALID,79,VALID,1.17188,
2011-10-18, 02:55:04,VALID,1003.66,VALID,0,VALID,84.4975,VALID,0,VALID,25.746,VALID,46,VALID,0.876562,
2011-10-18, 02:56:04,VALID,1003.68,VALID,0,VALID,84.4746,VALID,0,VALID,25.7265,VALID,93,VALID,1.08125,
2011-10-18, 02:57:04,VALID,1003.7,VALID,0,VALID,84.6882,VALID,0,VALID,25.7674,VALID,78,VALID,0.541797,
2011-10-18, 02:58:04,VALID,1003.7,VALID,0,VALID,84.9094,VALID,0,VALID,25.7869,VALID,99,VALID,1.5293,
2011-10-18, 02:59:04,VALID,1003.74,VALID,0,VALID,84.7492,VALID,0,VALID,25.8064,VALID,112,VALID,0.780859,
2011-10-18, 03:00:04,VALID,1003.68,VALID,0,VALID,85.1002,VALID,0,VALID,25.8239,VALID,120,VALID,1.85625,
2011-10-18, 03:01:04,VALID,1003.7,VALID,0,VALID,84.9934,VALID,0,VALID,25.8239,VALID,121,VALID,1.27578,
2011-10-18, 03:02:04,VALID,1003.68,VALID,0,VALID,85.1765,VALID,0,VALID,25.8044,VALID,96,VALID,1.1207,
2011-10-18, 03:03:04,VALID,1003.65,VALID,0,VALID,85.3519,VALID,0,VALID,25.7674,VALID,96,VALID,0.530078,
2011-10-18, 03:04:04,VALID,1003.6,VALID,0,VALID,85.741,VALID,0,VALID,25.7071,VALID,90,VALID,0.597656,
2011-10-18, 03:05:04,VALID,1003.59,VALID,0,VALID,85.9927,VALID,0,VALID,25.6486,VALID,72,VALID,0.610937,
2011-10-18, 03:06:04,VALID,1003.58,VALID,0,VALID,86.1301,VALID,0,VALID,25.6292,VALID,51,VALID,0.807422,
2011-10-18, 03:07:04,VALID,1003.55,VALID,0,VALID,86.4581,VALID,0,VALID,25.6116,VALID,18,VALID,0.76875,
2011-10-18, 03:08:04,VALID,1003.52,VALID,0,VALID,86.7785,VALID,0,VALID,25.5513,VALID,9,VALID,0.971484,
2011-10-18, 03:09:04,VALID,1003.53,VALID,0,VALID,86.9845,VALID,0,VALID,25.5123,VALID,9,VALID,0.124609,
2011-10-18, 03:10:04,VALID,1003.57,VALID,0,VALID,86.9845,VALID,0,VALID,25.4734,VALID,10,VALID,0.473047,
2011-10-18, 03:11:04,VALID,1003.53,VALID,0,VALID,87.076,VALID,0,VALID,25.4753,VALID,358,VALID,1.17266,
2011-10-18, 03:12:04,VALID,1003.53,VALID,0,VALID,87.1066,VALID,0,VALID,25.4558,VALID,5,VALID,0.739062,
2011-10-18, 03:13:04,VALID,1003.56,VALID,0,VALID,87.0837,VALID,0,VALID,25.4363,VALID,19,VALID,0.364844,
2011-10-18, 03:14:04,VALID,1003.53,VALID,0,VALID,86.9998,VALID,0,VALID,25.4149,VALID,19,VALID,0.264453,
2011-10-18, 03:15:04,VALID,1003.57,VALID,0,VALID,86.9845,VALID,0,VALID,25.4363,VALID,60,VALID,0.325391,
2011-10-18, 03:16:04,VALID,1003.55,VALID,0,VALID,87.015,VALID,0,VALID,25.4149,VALID,26,VALID,0.79375,
2011-10-18, 03:17:04,VALID,1003.57,VALID,0,VALID,86.809,VALID,0,VALID,25.4149,VALID,28,VALID,0.889453,
2011-10-18, 03:18:04,VALID,1003.55,VALID,0,VALID,87.0989,VALID,0,VALID,25.4363,VALID,30,VALID,0.798437,
2011-10-18, 03:19:04,VALID,1003.51,VALID,0,VALID,87.2057,VALID,0,VALID,25.4169,VALID,30,VALID,0.381641,
2011-10-18, 03:20:04,VALID,1003.48,VALID,0,VALID,87.2439,VALID,0,VALID,25.337,VALID,25,VALID,0.692969,
2011-10-18, 03:21:04,VALID,1003.46,VALID,0,VALID,87.221,VALID,0,VALID,25.2981,VALID,21,VALID,0.591016,
2011-10-18, 03:22:04,VALID,1003.47,VALID,0,VALID,87.2896,VALID,0,VALID,25.2981,VALID,21,VALID,0.376953,
2011-10-18, 03:23:04,VALID,1003.48,VALID,0,VALID,87.2591,VALID,0,VALID,25.3,VALID,86,VALID,0.729688,
2011-10-18, 03:24:04,VALID,1003.48,VALID,0,VALID,87.3583,VALID,0,VALID,25.2806,VALID,86,VALID,0.221094,
2011-10-18, 03:25:04,VALID,1003.44,VALID,0,VALID,87.5872,VALID,0,VALID,25.2397,VALID,85,VALID,0.39375,
2011-10-18, 03:26:04,VALID,1003.44,VALID,0,VALID,87.6711,VALID,0,VALID,25.2007,VALID,82,VALID,0.224609,
2011-10-18, 03:27:04,VALID,1003.39,VALID,0,VALID,87.5948,VALID,0,VALID,25.2007,VALID,66,VALID,0.160547,
2011-10-18, 03:28:04,VALID,1003.42,VALID,0,VALID,87.6635,VALID,0,VALID,25.2027,VALID,66,VALID,0.127344,
2011-10-18, 03:29:04,VALID,1003.44,VALID,0,VALID,87.7245,VALID,0,VALID,25.2046,VALID,66,VALID,0,
2011-10-18, 03:30:04,VALID,1003.45,VALID,0,VALID,87.8313,VALID,0,VALID,25.1637,VALID,57,VALID,0.417969,
2011-10-18, 03:31:04,VALID,1003.47,VALID,0,VALID,87.8694,VALID,0,VALID,25.1832,VALID,31,VALID,0.616016,
2011-10-18, 03:32:04,VALID,1003.48,VALID,0,VALID,87.5948,VALID,0,VALID,25.1618,VALID,42,VALID,0.385156,
2011-10-18, 03:33:04,VALID,1003.51,VALID,0,VALID,87.5338,VALID,0,VALID,25.1813,VALID,13,VALID,0.554688,
2011-10-18, 03:34:04,VALID,1003.52,VALID,0,VALID,87.6024,VALID,0,VALID,25.2202,VALID,13,VALID,0.316016,
2011-10-18, 03:35:04,VALID,1003.53,VALID,0,VALID,87.7398,VALID,0,VALID,25.2202,VALID,13,VALID,0.371094,
2011-10-18, 03:36:04,VALID,1003.51,VALID,0,VALID,87.755,VALID,0,VALID,25.2416,VALID,357,VALID,0.745703,
2011-10-18, 03:37:04,VALID,1003.52,VALID,0,VALID,88.0296,VALID,0,VALID,25.2221,VALID,353,VALID,0.592969,
2011-10-18, 03:38:04,VALID,1003.5,VALID,0,VALID,88.0602,VALID,0,VALID,25.2435,VALID,359,VALID,0.655078,
2011-10-18, 03:39:04,VALID,1003.54,VALID,0,VALID,88.6094,VALID,0,VALID,25.1832,VALID,359,VALID,0.202344,
2011-10-18, 03:40:04,VALID,1003.54,VALID,0,VALID,89.0595,VALID,0,VALID,25.1423,VALID,359,VALID,0.457422,
2011-10-18, 03:41:04,VALID,1003.58,VALID,0,VALID,89.0824,VALID,0,VALID,25.1248,VALID,1,VALID,0.320703,
2011-10-18, 03:42:04,VALID,1003.6,VALID,0,VALID,89.3952,VALID,0,VALID,25.0858,VALID,1,VALID,0.505469,
2011-10-18, 03:43:04,VALID,1003.64,VALID,0,VALID,89.2579,VALID,0,VALID,25.0469,VALID,1,VALID,0.504297,
2011-10-18, 03:44:04,VALID,1003.6,VALID,0,VALID,89.3342,VALID,0,VALID,25.0255,VALID,3,VALID,0.603125,
2011-10-18, 03:45:04,VALID,1003.64,VALID,0,VALID,89.4334,VALID,0,VALID,25.0469,VALID,5,VALID,0.01875,
2011-10-18, 03:46:04,VALID,1003.69,VALID,0,VALID,89.4639,VALID,0,VALID,25.045,VALID,5,VALID,0,